Zurück zum Katalog

STARLINK-31513

AktivKommunikationVLEO
NORAD 59529·PAYLOAD·🇺🇸 United States

Gestartet Apr 17, 2024 von Cape Canaveral Space Force Station

Loading…

Nächste Überflüge (nächste 24 Stunden)

TLE

AktuellSource: CelesTrak SupGP

Epoche: Sep 15, 2026, 03:24 UTC

1 59529C 24073U   26258.14215278  .00039608  00000+0  14343-2 0  2589
2 59529  43.0028 324.8509 0001664 264.0107 214.4917 15.27565688    19

Verfolge STARLINK-31513 in Echtzeit mit AllMySat

Download on the App Store